Overview Statistics Trail Chart Weather Telemetry Raw packets
 

This is the latest recevied weather packets stored in our database for station/object N2ZVN. If no packets are shown the sender has not sent any weather packets the latest 10 day(s).

<< 100 101 102 103 104 105 106 >>
Time Temp. Humidity Pressure Rain* Wind** Luminosity Snow
1787956321 19.44° C 57% 1021.9 hPa 0 mm - 17 W/m² -
1787956017 20° C 57% 1021.8 hPa 0 mm - 17 W/m² -
1787955712 20° C 62% 1021.8 hPa 0 mm - 18 W/m² -
1787955408 20° C 62% 1021.9 hPa 0 mm - 18 W/m² -
1787955106 20° C 56% 1021.7 hPa 0 mm - 18 W/m² -
1787954803 20° C 55% 1021.7 hPa 0 mm - 19 W/m² -
1787954499 20° C 51% 1021.8 hPa 0 mm - 19 W/m² -
1787954198 20° C 63% 1021.7 hPa 0 mm - 19 W/m² -
1787953898 20° C 53% 1021.6 hPa 0 mm - 22 W/m² -
1787953597 20.56° C 61% 1021.6 hPa 0 mm - 20 W/m² -
1787953292 20.56° C 60% 1021.6 hPa 0 mm - 32 W/m² -
1787952989 20.56° C 52% 1021.5 hPa 0 mm - 20 W/m² -
1787952684 20.56° C 54% 1021.6 hPa 0 mm - 20 W/m² -
1787952384 20.56° C 50% 1021.6 hPa 0 mm - 21 W/m² -
1787952080 20.56° C 49% 1021.5 hPa 0 mm - 21 W/m² -
1787951779 20.56° C 51% 1021.7 hPa 0 mm - 22 W/m² -
1787951475 20.56° C 53% 1021.6 hPa 0 mm - 22 W/m² -
1787951171 20.56° C 50% 1021.7 hPa 0 mm - 22 W/m² -
1787950867 20.56° C 50% 1021.6 hPa 0 mm - 22 W/m² -
1787950562 20.56° C 53% 1021.5 hPa 0 mm - 22 W/m² -
1787950258 20.56° C 53% 1021.6 hPa 0 mm - 22 W/m² -
1787949954 20.56° C 49% 1021.7 hPa 0 mm - 23 W/m² -
1787949649 20.56° C 50% 1021.7 hPa 0 mm - 23 W/m² -
1787949349 20.56° C 52% 1021.5 hPa 0 mm - 23 W/m² -
1787949044 20.56° C 57% 1021.7 hPa 0 mm - 24 W/m² -

* Rain latest hour (hover to see other rain measurements)
** Current wind speed in m/s (hover to see current wind gust speed)